User: anonymous   Login
Location: Unspecified
(0.0000°N, 0.0000°E)
Time: 09:12:14
(UTC+00:00)
Language:

Triad OI-1X - Orbit

View from above orbital plane
View from above orbital plane
View from above satellite
View from above satellite

Ground track
Ground track

The orbit data is extracted from the following two-line orbital elements,

1 06173U 72069A   18109.88869632  .00000138  00000-0  32055-4 0  9991
2 06173  89.8899 225.8378 0055094 125.4716 354.0556 14.48880198398946
Epoch (UTC): 19 April 2018 21:19:43
Eccentricity: 0.0055094
inclination: 89.8899°
perigee height: 690 km
apogee height: 768 km
right ascension of ascending node: 225.8378°
argument of perigee: 125.4716°
revolutions per day: 14.48880198
mean anomaly at epoch: 354.0556°
orbit number at epoch: 39894

The dashed part of the orbit path shows where the satellite is in the earth's shadow,  

DLR